Theta_e
327 326 323 323 322 321 321 321 320 318 316 315 316 313 312 310 309 307 300 298 296 295 294 293 290 289 290 290 290 290 290 290 290 291 291 291 293 296 307 315 318 320 323 327 329 330 327 326 327 327 325 325 324 323 323 325 323 323 322 322 322 321 321 319 319 318 319 320 320 320 320 320 321 321 321 321 321 323 324 326 326 326 328 328 329
327 324 324 321 320 318 319 319 319 318 317 317 314 315 313 309 308 307 304 299 297 296 295 294 292 290 289 291 290 291 290 290 290 291 291 292 292 295 305 311 315 318 321 324 327 329 329 327 327 326 326 325 324 324 323 324 324 323 321 321 322 321 320 319 319 319 318 318 320 320 319 320 320 320 320 320 320 320 322 322 324 324 324 326 326
326 324 324 323 319 317 318 316 316 316 316 317 313 314 312 313 311 309 306 301 299 295 295 294 291 290 291 291 291 290 290 290 291 291 292 292 292 292 296 306 311 316 319 321 324 327 328 329 328 327 327 326 325 325 324 323 325 323 321 320 322 322 320 319 319 318 317 318 319 319 318 318 319 319 319 319 319 319 320 320 321 322 322 322 323
326 325 322 321 321 320 318 316 317 316 316 315 313 311 311 309 308 307 305 302 298 294 292 294 292 290 289 290 289 290 290 290 290 291 292 292 293 293 294 297 303 311 317 320 322 325 327 328 328 328 327 327 327 326 324 323 323 325 322 322 323 321 321 320 319 317 317 317 318 319 318 318 318 319 318 318 318 318 319 319 319 320 321 320 321
321 322 320 322 321 319 318 318 319 316 313 313 312 309 309 308 306 305 303 301 298 296 293 292 291 290 288 289 289 289 289 289 290 291 292 292 292 292 294 295 296 303 309 314 319 322 324 326 327 328 328 328 327 327 325 324 322 323 324 323 322 321 321 321 319 317 317 317 317 318 318 317 317 317 318 318 317 317 318 318 318 318 318 319 319
319 318 320 319 319 319 318 318 319 317 315 313 313 310 310 309 306 305 304 301 300 297 295 297 293 289 289 288 288 288 287 289 289 289 290 292 292 292 293 294 295 297 299 306 312 317 322 324 325 325 326 327 328 328 327 326 324 322 324 324 324 322 323 320 319 317 317 317 318 317 317 317 317 317 317 317 317 317 317 317 318 318 318 318 318
320 322 320 317 318 318 317 318 316 313 313 312 312 309 309 309 306 307 301 300 298 297 295 297 294 295 291 290 290 288 288 288 288 288 289 290 291 291 293 294 294 296 298 297 302 306 313 320 323 324 324 325 326 327 327 327 326 324 324 325 325 324 322 323 320 319 318 317 317 317 317 316 316 317 317 317 317 317 316 317 317 317 318 318 317
319 319 319 317 317 316 317 316 313 312 311 310 311 310 309 308 306 308 305 303 301 301 293 295 292 293 291 289 288 289 288 287 288 288 289 288 291 291 293 293 294 294 299 297 297 299 307 314 319 322 323 323 324 325 326 327 326 325 325 325 324 324 322 321 320 321 319 317 317 317 316 316 315 316 316 316 316 316 316 316 316 316 316 317 316
317 316 316 315 314 314 312 310 309 312 311 310 311 311 309 308 304 305 308 308 302 302 296 292 293 291 289 288 288 288 288 287 287 288 289 288 288 289 291 293 293 299 294 295 296 297 301 308 314 317 316 318 320 322 323 325 324 325 325 325 324 323 322 322 320 319 318 318 317 316 316 316 316 316 316 316 316 316 315 315 316 316 316 315 316
314 315 315 314 314 313 311 310 310 310 309 308 309 307 307 308 307 302 303 304 303 302 302 297 292 291 289 288 288 286 287 287 288 291 289 289 288 288 291 292 292 293 294 295 294 295 296 301 308 310 309 312 317 321 322 323 324 326 326 325 324 324 323 322 320 318 318 317 317 316 316 315 316 317 316 316 316 315 315 315 315 315 315 315 315
310 311 311 311 311 311 311 310 310 310 308 307 306 305 304 304 306 302 297 298 301 299 299 298 294 291 289 289 286 287 287 287 288 287 287 287 288 291 289 291 290 293 294 293 293 293 295 296 295 297 297 306 313 318 320 322 323 324 325 326 324 323 323 322 321 320 319 317 316 316 315 315 315 316 316 315 315 315 315 315 314 315 315 315 314
307 308 308 308 308 308 308 308 308 308 308 307 306 306 305 304 303 303 300 298 296 293 292 292 291 290 291 290 287 287 287 288 287 288 288 288 288 287 288 289 289 291 292 292 293 293 293 294 294 295 296 300 307 311 314 317 317 320 322 324 325 324 323 321 321 321 318 317 317 316 316 315 315 315 315 315 315 314 314 314 314 314 314 314 313
304 305 305 305 306 306 306 306 307 306 306 305 304 304 303 302 301 299 300 299 297 292 292 293 292 293 290 288 288 287 289 288 288 288 288 288 287 287 288 289 289 289 291 291 292 292 292 293 294 294 295 294 296 302 307 310 312 315 319 321 323 324 323 323 321 320 319 317 317 316 315 315 315 315 314 314 314 314 314 314 314 314 314 313 314
299 301 301 303 303 304 304 304 304 305 304 303 303 300 301 300 300 299 297 298 298 293 294 294 292 291 291 289 288 289 286 287 287 288 288 287 287 288 288 288 289 289 287 288 290 291 291 292 292 293 293 293 294 294 295 298 301 309 315 319 321 323 322 322 322 321 319 318 317 317 315 315 315 315 315 314 315 314 314 314 314 314 314 314 314
294 296 297 298 299 301 301 302 302 302 303 303 303 302 301 299 299 300 298 295 294 293 293 294 294 288 289 290 288 285 290 285 285 286 288 288 286 287 288 287 288 287 287 286 288 289 290 290 290 291 292 292 292 292 293 296 296 300 307 312 315 319 323 323 322 321 321 319 317 316 316 316 316 315 315 315 314 314 314 314 314 313 314 314 314
292 293 293 294 295 296 298 298 299 300 301 300 300 300 300 300 300 299 299 297 296 294 294 293 292 294 293 289 287 284 288 290 282 285 283 285 286 286 286 288 288 286 286 288 288 287 288 288 289 290 291 291 291 290 291 291 294 298 298 301 304 310 316 320 323 322 322 321 319 318 317 316 317 315 315 315 315 314 314 313 313 313 313 314 314
289 290 291 291 292 293 294 294 295 296 297 297 296 297 297 298 298 297 297 298 297 295 293 293 293 293 294 289 290 288 287 286 286 291 282 286 285 285 286 286 286 286 286 287 287 287 287 287 288 288 288 289 289 289 289 289 290 291 293 294 297 302 308 315 319 321 321 322 322 321 321 319 317 316 316 316 316 314 313 313 313 314 313 314 314
288 288 288 289 289 290 291 291 292 293 294 294 294 294 294 294 295 295 294 294 294 293 294 294 292 293 292 292 295 292 288 288 288 288 286 285 284 283 284 285 284 286 286 287 287 288 288 287 287 287 288 287 288 287 288 288 288 288 288 290 299 303 304 308 313 318 320 321 320 321 323 322 318 317 316 316 316 315 314 313 313 313 313 313 314
286 287 287 288 288 288 289 289 290 290 291 291 291 291 292 292 293 293 293 294 294 293 293 293 291 291 292 292 290 288 288 287 286 287 286 288 284 284 287 284 284 284 286 287 287 287 287 287 287 287 287 287 287 287 287 287 291 291 294 297 301 304 305 307 308 311 316 318 319 319 319 322 320 318 317 316 316 315 314 314 313 313 313 313 314
284 285 286 286 287 287 287 287 288 288 289 289 289 290 291 292 292 292 292 293 292 291 291 292 291 292 292 291 291 290 289 288 288 286 285 283 287 286 285 285 284 284 286 286 287 287 287 287 287 287 287 286 287 287 287 287 286 287 289 296 300 303 304 305 305 307 308 311 315 318 319 321 320 319 318 316 316 315 314 314 313 313 313 313 313
284 284 284 284 285 285 285 286 286 287 287 287 288 289 289 289 290 290 291 291 291 291 291 291 292 291 291 291 291 291 290 289 288 286 285 285 286 287 288 286 285 285 285 285 286 287 287 288 287 288 287 287 287 287 287 287 287 287 290 295 300 304 306 306 305 305 306 307 308 310 315 318 321 323 322 319 317 316 315 314 314 313 313 313 313
283 283 283 284 284 284 284 284 284 285 286 286 286 287 288 288 289 289 289 289 290 290 290 290 291 291 291 291 290 289 288 288 287 285 285 286 284 285 286 286 285 287 286 286 286 287 287 287 286 287 287 287 287 287 286 287 287 287 289 294 298 301 303 304 305 305 306 307 307 308 309 311 315 319 322 322 320 318 316 315 314 314 313 312 312
283 283 283 283 283 284 283 283 284 284 285 285 285 286 287 287 288 288 288 288 288 288 288 289 289 290 289 289 289 290 289 287 287 288 287 285 285 286 287 288 287 287 286 286 287 287 286 286 286 286 287 287 287 287 286 287 289 290 292 294 296 298 300 302 303 304 304 305 307 308 308 308 309 312 316 320 322 320 318 317 315 314 313 312 312
283 283 283 284 284 283 283 283 283 284 284 285 285 285 286 286 287 287 287 287 287 287 287 287 287 288 288 289 289 289 289 289 289 289 288 287 287 286 286 287 287 287 287 284 285 286 286 286 287 287 287 287 287 287 287 287 288 291 291 292 295 298 301 303 304 303 303 304 305 306 308 309 309 310 311 313 318 320 320 318 316 315 314 313 313
282 282 282 283 283 283 283 283 283 283 284 284 284 285 285 286 286 285 286 286 286 286 286 286 286 286 287 288 288 288 288 289 289 288 287 287 286 284 286 286 285 286 286 284 285 282 284 285 285 287 286 287 288 287 287 287 287 289 292 291 294 296 298 300 302 303 304 304 304 305 306 307 309 311 312 312 313 317 320 319 316 315 314 314 313
282 282 282 283 283 283 283 283 283 283 283 283 283 283 284 284 285 285 285 286 285 285 285 285 286 286 286 285 286 287 287 288 287 287 285 285 283 283 284 284 284 285 287 285 282 285 285 283 285 286 285 285 286 287 286 286 286 290 291 289 291 294 297 298 300 301 302 303 305 305 305 306 307 309 310 311 311 313 318 318 316 316 315 314 313
281 282 282 282 283 283 283 282 283 282 282 282 283 282 283 283 283 283 283 285 284 284 284 285 285 285 285 285 285 286 286 287 286 286 287 285 284 283 283 281 282 284 285 286 286 284 287 285 284 284 285 285 286 286 286 286 288 290 290 288 287 291 294 298 300 302 302 303 303 304 304 305 307 308 308 308 309 312 316 315 316 315 315 314 312
279 280 280 280 280 280 281 281 282 282 282 282 282 282 282 281 281 281 281 284 282 282 283 284 284 284 285 285 285 285 286 286 286 286 286 286 285 284 283 281 280 280 284 283 285 286 284 286 283 284 285 285 286 286 287 287 286 290 289 287 286 287 292 295 299 301 302 302 303 303 303 304 306 307 307 308 310 312 314 314 314 313 313 312 311
279 280 278 278 278 278 278 279 279 280 281 281 281 281 281 281 280 280 280 281 281 281 281 282 282 283 284 284 284 285 285 285 285 285 285 284 285 284 284 283 283 280 280 281 283 284 284 283 284 283 283 284 285 286 284 284 286 287 285 285 285 286 289 293 296 299 301 302 303 303 303 303 305 307 307 308 310 311 312 312 311 311 312 312 312
279 280 278 278 278 279 278 278 278 278 278 279 279 280 280 280 280 280 280 280 280 280 280 280 280 281 282 282 283 283 284 284 285 285 285 285 284 284 284 284 283 281 280 279 281 284 285 284 282 284 283 282 283 284 284 285 287 287 285 285 285 285 290 292 294 296 299 301 302 302 303 303 304 306 306 307 308 310 312 312 312 312 312 312 312
279 279 278 278 279 278 278 278 278 278 278 278 278 278 278 277 278 278 279 279 278 278 279 280 280 280 280 280 281 281 282 282 283 284 284 284 284 284 283 284 283 283 282 281 279 283 283 284 284 283 282 283 285 285 285 284 286 287 285 285 285 288 290 290 291 294 296 298 299 300 302 303 304 305 306 306 308 309 311 311 310 311 311 310 311
278 278 277 277 278 278 278 278 278 278 278 278 278 277 277 277 277 277 278 278 277 277 278 279 279 279 279 279 279 280 281 281 281 281 282 283 284 284 283 283 283 283 282 281 280 281 284 285 285 286 287 286 286 286 285 285 286 287 285 284 285 288 286 286 290 292 294 295 297 299 300 301 302 304 306 306 306 308 309 310 310 310 309 309 309
277 277 277 277 277 277 277 277 277 277 277 277 277 277 276 276 277 277 277 277 276 276 277 277 278 278 278 278 278 279 279 279 279 280 281 282 282 283 283 283 282 282 281 280 279 280 282 284 284 285 285 284 285 284 285 285 285 285 286 284 284 284 284 284 285 288 291 293 295 297 298 300 301 303 305 306 306 306 307 308 308 308 308 308 308
277 277 277 277 277 277 276 276 276 276 276 276 276 276 276 276 276 277 277 276 276 276 276 276 276 277 277 277 277 278 278 278 278 278 279 280 280 281 281 281 281 281 282 281 280 280 279 281 282 284 284 285 284 285 284 286 285 285 285 285 284 283 284 284 284 284 289 291 293 295 297 298 300 301 303 304 306 306 306 306 306 305 306 306 306
277 276 276 276 276 276 276 276 275 275 276 275 276 276 275 275 275 275 276 275 275 275 275 275 275 276 276 276 276 277 278 277 277 277 278 278 279 279 280 280 280 281 281 281 280 279 279 279 281 282 283 284 284 284 284 285 285 285 284 284 285 285 284 284 283 284 288 291 293 294 296 297 298 299 301 303 304 305 305 305 305 304 304 305 305
275 276 276 275 275 275 275 275 275 275 275 275 275 275 275 275 275 275 275 275 275 275 275 275 275 275 275 275 276 276 276 276 277 277 277 277 277 278 278 279 279 280 280 281 281 280 280 279 280 280 282 281 283 283 283 283 283 283 284 284 284 284 284 284 284 284 286 290 292 293 295 296 297 298 299 300 302 304 304 304 304 303 303 302 302
274 274 274 274 274 274 274 273 273 273 274 274 274 274 274 274 274 274 274 275 275 275 275 275 277 275 275 275 276 276 276 276 276 276 277 277 277 277 277 278 278 278 279 280 280 280 279 278 279 280 280 281 282 282 282 282 283 283 283 282 283 283 283 284 284 284 287 290 291 292 293 294 295 296 298 299 300 302 303 303 303 302 301 301 301
273 273 272 272 272 272 272 272 272 272 272 272 272 273 273 273 274 274 274 274 274 275 275 275 276 276 276 276 276 276 276 276 276 276 277 276 277 277 277 277 278 278 278 278 278 278 279 278 279 278 280 280 280 280 282 281 281 281 282 282 282 282 282 282 283 284 284 285 285 287 290 291 293 294 296 297 299 300 302 303 302 302 300 299 299
271 271 271 271 271 271 271 271 271 271 271 271 271 271 272 272 272 273 273 274 274 275 275 275 275 276 276 276 276 276 276 276 276 276 276 277 277 277 277 277 278 277 277 277 277 277 277 277 278 278 278 279 279 279 280 281 281 281 280 281 281 283 282 282 282 283 283 284 286 288 288 288 290 291 293 295 297 298 300 301 301 301 299 298 298
269 269 269 269 269 270 270 269 269 270 269 269 270 270 271 271 272 272 273 273 273 273 274 274 274 275 275 275 276 276 276 276 276 276 277 277 277 277 278 278 278 277 277 277 277 277 277 277 277 277 278 278 278 278 279 278 278 279 279 279 279 281 281 282 282 283 283 283 282 283 286 288 289 290 292 293 294 296 298 298 299 299 297 298 298
268 268 268 268 268 267 268 268 268 268 268 268 269 269 270 271 272 272 272 272 272 272 272 273 273 274 274 274 275 275 276 278 279 280 280 280 279 278 278 279 278 278 277 277 277 277 276 276 276 277 277 277 277 278 277 277 277 278 280 279 279 281 281 281 282 283 283 282 282 282 282 283 283 284 285 286 288 291 293 295 296 296 297 298 299
266 266 266 266 266 265 265 266 266 266 266 267 269 272 274 272 272 272 272 272 272 272 271 271 271 272 272 273 274 276 276 277 277 278 279 280 280 279 278 278 278 278 278 277 277 277 276 275 276 276 276 275 276 277 277 278 279 279 279 278 279 280 280 280 281 282 282 282 282 281 282 283 282 282 283 283 285 287 288 290 292 295 296 298 299
264 264 264 264 264 264 264 264 264 265 265 266 270 272 274 275 273 272 271 271 271 271 271 271 271 271 272 272 273 274 275 275 275 277 278 278 279 279 280 280 280 278 277 277 277 278 277 277 277 277 276 276 277 278 278 278 279 278 279 279 279 279 279 278 278 281 281 282 281 281 282 283 282 281 282 282 284 284 286 287 292 295 296 297 298
263 262 263 263 263 263 263 263 263 263 263 266 270 272 273 274 274 272 272 271 271 271 270 270 270 270 270 270 271 271 270 271 271 271 273 275 277 277 278 279 279 280 281 278 277 277 277 277 277 278 278 278 278 279 278 278 278 278 278 279 279 278 278 278 278 278 281 282 280 280 281 282 282 281 281 282 283 283 285 288 291 293 295 297 298
261 261 262 262 262 262 262 262 262 262 262 266 269 271 273 274 274 273 271 271 270 270 269 269 268 268 268 268 268 269 269 272 271 270 270 271 274 276 277 277 277 278 279 280 281 278 278 277 276 277 277 278 278 279 280 279 280 278 278 278 278 278 278 278 279 280 279 281 280 280 280 281 281 281 281 282 282 283 284 288 290 292 293 295 296
260 260 260 261 261 261 261 261 261 261 261 265 270 271 272 273 274 274 271 270 269 268 268 268 268 268 268 268 268 268 269 270 270 270 270 271 271 271 272 272 272 274 276 277 278 278 278 276 275 274 276 278 277 279 280 281 280 279 279 279 279 278 278 278 280 281 281 281 280 280 280 280 280 280 280 282 282 282 283 286 289 291 292 293 295
260 259 259 259 259 260 260 260 260 260 261 267 269 271 271 273 274 273 270 268 267 267 268 268 268 268 268 268 268 268 268 269 270 271 270 271 271 271 272 272 273 273 273 274 274 274 274 274 274 274 275 276 276 277 278 279 279 279 280 279 280 280 281 281 281 281 281 280 280 280 278 281 280 279 280 282 282 282 283 286 289 290 291 292 293
258 259 259 259 259 259 259 259 259 259 260 266 268 270 271 272 273 270 268 267 267 267 267 267 268 268 268 268 268 268 268 268 271 273 273 271 271 270 270 271 271 272 273 275 277 278 277 276 276 277 277 278 280 280 280 280 280 280 280 280 280 280 279 278 277 279 280 280 280 279 278 280 279 279 280 281 281 281 282 282 287 290 291 292 292
258 258 258 258 258 258 258 258 258 258 259 263 268 269 271 272 271 268 268 267 266 266 266 267 268 268 268 268 268 268 268 268 271 274 274 274 271 271 271 271 272 272 272 274 277 279 279 280 280 281 281 282 282 282 283 283 282 282 282 280 279 279 278 276 276 278 278 280 278 280 279 279 280 278 279 278 279 280 281 282 283 287 290 291 292
257 257 258 257 258 258 258 257 258 258 259 262 267 269 270 271 271 268 267 266 266 266 266 267 267 268 268 270 270 269 268 269 273 275 276 274 271 271 271 270 269 269 270 272 273 274 277 278 279 279 280 280 281 281 282 282 283 282 278 276 279 281 278 278 276 277 278 280 278 280 278 278 280 276 275 275 276 277 280 281 282 283 288 290 291
257 257 257 257 257 257 257 258 260 260 259 261 265 267 269 271 270 268 268 267 266 266 266 266 267 268 268 269 271 272 271 272 275 276 276 275 272 271 271 270 270 269 271 271 270 270 271 271 272 273 275 276 276 276 276 280 281 280 279 278 279 278 278 279 279 278 277 278 280 280 278 277 280 274 278 271 274 276 278 279 280 281 282 284 286
Wind_Speed
5 5 3 4 1 2 3 4 2 3 3 1 3 4 4 4 3 3 2 3 2 3 1 0 1 1 1 3 4 4 4 3 3 3 3 3 3 4 5 6 6 6 6 7 7 8 8 7 8 8 6 5 6 4 5 7 7 6 5 5 5 5 5 4 4 6 7 9 7 6 5 7 7 6 5 4 4 4 2 3 6 8 9 11 12
6 5 5 4 4 2 2 3 6 7 6 6 5 5 5 4 4 3 4 3 3 2 1 1 0 1 1 1 3 3 4 4 4 4 4 4 4 4 7 7 7 7 7 7 7 8 8 9 9 8 8 8 7 6 5 7 8 7 5 4 7 6 6 5 7 8 6 8 9 7 5 6 8 6 5 4 5 6 5 4 5 5 8 9 11
6 5 5 5 4 3 3 2 1 2 2 2 3 6 6 6 6 5 4 4 2 0 1 1 1 2 1 0 3 3 4 3 4 3 4 4 4 4 4 8 8 8 7 8 8 8 8 9 10 9 9 10 10 8 7 7 10 9 5 1 6 9 7 5 5 6 6 7 9 8 5 5 7 7 6 6 5 6 6 7 5 6 4 8 8
2 6 8 6 4 6 5 2 3 4 5 3 2 0 1 1 2 3 3 2 2 1 0 1 2 1 1 1 1 2 3 3 3 4 4 4 4 4 4 5 8 9 8 8 9 9 9 9 10 10 10 11 11 10 8 7 8 12 5 6 11 7 7 8 5 3 4 6 8 8 5 6 6 7 6 6 6 6 7 6 7 6 6 3 6
3 1 2 2 5 8 6 7 6 5 4 3 3 3 3 4 3 3 3 3 1 1 0 0 2 2 2 1 1 2 2 2 3 4 4 4 4 4 5 4 5 7 9 9 8 8 9 9 10 11 11 11 11 11 10 10 8 10 12 9 7 7 7 9 6 4 4 6 7 8 6 6 7 7 8 7 6 7 7 7 6 6 6 5 3
3 2 3 2 1 3 2 4 6 7 5 5 5 4 4 4 3 3 3 3 3 3 2 4 3 1 2 2 1 2 2 3 3 3 3 4 5 4 4 4 5 5 6 8 9 8 8 7 7 7 8 9 12 12 12 11 10 10 12 10 12 8 10 7 7 3 5 6 6 8 7 6 6 7 8 8 7 6 6 7 7 7 6 6 5
4 5 4 3 4 5 4 6 3 1 3 3 3 2 3 5 5 5 3 2 3 3 3 4 4 5 3 1 3 2 1 2 2 4 4 4 5 4 4 3 5 4 5 6 7 8 8 8 6 7 7 8 9 12 13 12 12 10 11 12 12 9 9 12 6 8 7 5 8 7 7 6 5 7 8 8 8 7 7 7 8 7 7 8 6
8 5 2 2 3 4 6 4 3 3 3 3 3 5 3 4 3 4 4 4 3 5 2 3 2 4 3 3 3 2 4 3 3 3 4 3 4 5 5 4 5 4 4 6 5 6 9 8 7 6 5 6 7 8 9 11 11 13 13 13 9 11 9 8 9 10 8 4 8 9 7 6 5 7 8 8 8 8 7 8 8 7 5 8 7
7 5 6 7 6 5 6 4 1 1 4 3 3 3 4 4 4 4 4 5 5 4 3 3 4 3 3 4 3 3 4 3 4 5 3 4 4 3 4 5 4 5 4 5 5 6 7 9 8 7 6 6 7 7 7 9 11 12 12 12 12 11 10 11 11 7 7 7 9 7 8 8 8 9 8 8 8 8 8 8 8 8 8 8 9
10 9 8 7 7 6 5 6 5 5 4 1 1 3 4 5 6 4 3 3 4 4 6 4 3 3 3 3 3 3 4 4 5 3 4 5 4 4 4 3 4 5 5 5 5 5 5 8 9 8 7 6 7 8 9 9 9 10 11 13 12 12 13 12 10 6 8 9 8 8 9 9 10 10 9 9 8 9 9 9 9 9 8 8 9
12 11 9 8 8 7 7 6 6 6 6 6 7 7 7 7 5 2 1 1 1 2 2 1 2 2 3 4 3 4 5 4 3 4 4 4 4 4 2 5 3 5 5 4 4 4 6 6 6 6 6 8 7 9 8 9 9 9 9 11 13 13 13 12 11 12 12 8 8 9 10 11 10 11 12 10 9 9 9 9 9 9 8 9 10
12 11 11 10 10 9 8 7 6 5 5 6 5 5 5 5 5 5 4 4 4 5 2 1 1 3 5 5 4 4 5 4 4 5 4 4 5 3 5 5 4 5 4 4 5 5 5 5 5 6 6 7 9 8 8 8 8 9 10 11 12 14 14 13 13 13 9 9 10 11 10 10 11 11 12 12 11 10 10 10 9 10 11 11 11
12 11 11 9 9 8 8 7 7 7 6 6 4 4 3 3 3 4 3 4 2 4 4 1 3 5 3 4 5 4 6 4 6 6 6 6 4 5 6 5 6 5 5 4 5 5 4 4 5 6 6 6 7 9 8 8 7 9 10 11 11 13 15 15 14 14 12 12 12 11 10 10 12 13 12 12 12 10 11 10 11 11 11 11 11
10 10 10 10 10 10 10 10 8 7 6 4 5 4 5 6 4 3 3 2 1 2 1 3 3 3 6 7 5 6 3 2 5 7 5 4 4 4 5 5 6 6 3 3 5 4 4 5 4 5 5 6 6 6 7 7 7 8 10 11 12 13 15 15 15 16 16 14 13 14 14 11 12 14 13 13 13 13 12 12 12 12 12 12 12
10 10 10 10 10 9 8 7 8 7 7 7 7 7 6 7 5 3 3 1 0 1 2 4 1 2 1 3 4 7 5 4 2 4 6 7 4 5 4 4 7 4 2 3 6 5 4 4 5 5 6 5 6 6 6 7 7 9 10 11 11 12 13 16 17 16 17 16 15 15 15 13 13 14 14 14 14 14 13 13 12 12 12 12 13
12 11 10 10 10 10 8 8 9 8 8 9 10 10 9 7 3 2 1 2 2 2 1 2 2 4 5 1 2 2 8 2 4 7 3 4 2 5 3 6 6 4 1 5 6 4 5 4 5 6 6 6 5 5 6 6 8 11 12 11 10 12 14 14 15 18 18 18 18 17 17 15 15 15 15 15 16 15 15 13 12 13 13 13 13
10 11 10 10 9 9 8 8 8 8 7 8 8 7 8 7 6 5 5 2 5 3 2 0 1 2 1 2 4 1 2 4 8 8 2 1 2 3 4 4 5 4 3 6 5 6 6 5 6 6 7 7 6 6 6 6 6 5 8 10 12 11 12 14 16 17 18 19 19 19 17 17 18 16 15 15 16 16 15 14 14 14 14 13 13
10 11 11 10 10 10 9 10 10 9 9 8 7 8 10 9 8 6 6 4 2 3 3 0 2 2 4 3 3 4 5 5 7 8 2 2 5 3 4 4 4 4 5 6 7 7 5 7 6 7 7 6 6 6 6 6 6 6 6 8 12 13 12 14 17 18 19 19 20 20 20 19 16 17 16 17 17 17 16 15 15 14 14 14 14
11 11 11 10 10 10 10 10 9 9 8 9 9 8 7 6 6 8 6 5 4 5 5 5 1 1 3 3 3 3 3 3 5 7 13 2 1 5 6 3 4 4 5 6 7 6 7 6 7 7 7 6 6 7 6 8 8 8 11 13 14 14 15 15 15 18 20 21 21 21 21 21 19 19 17 15 17 17 17 16 16 16 15 15 14
11 11 11 10 10 10 10 10 10 9 8 8 8 7 7 7 6 5 6 7 6 5 3 4 4 4 2 2 2 3 4 4 4 6 7 11 11 2 3 6 3 4 5 7 7 7 7 6 7 7 7 7 7 7 8 8 8 8 8 14 15 16 16 16 16 16 17 19 22 22 21 22 22 21 19 17 17 18 17 17 17 17 16 16 15
11 11 11 10 10 9 9 9 9 9 7 8 7 7 8 8 9 9 8 6 6 5 4 5 5 3 5 3 3 2 2 4 4 3 4 7 12 7 8 3 4 4 6 5 6 6 7 8 7 7 7 8 7 8 8 8 8 8 8 14 16 18 18 18 17 17 17 17 19 21 23 23 22 23 23 19 18 18 18 18 18 19 17 16 16
10 10 11 11 11 10 10 10 9 7 7 7 7 8 8 8 7 6 7 7 6 6 5 5 5 5 4 3 3 3 3 2 1 1 3 6 10 11 9 10 11 4 3 4 7 7 7 6 6 6 7 8 7 7 8 8 9 8 10 15 15 17 18 18 18 18 17 16 17 18 21 23 24 23 23 21 22 20 18 18 18 19 18 17 17
7 8 9 8 9 9 9 9 8 8 9 9 9 7 7 6 6 6 7 7 6 6 6 5 4 5 5 5 5 4 3 3 5 4 4 5 7 10 10 8 10 13 4 5 5 6 5 4 6 7 8 8 8 7 7 9 10 10 14 13 14 16 18 18 19 19 19 19 18 18 18 19 21 22 23 22 20 22 21 19 19 20 19 18 17
8 8 9 9 8 8 7 7 8 8 9 7 8 7 7 7 7 6 6 5 5 5 4 6 6 5 5 5 4 4 4 4 4 4 5 6 6 10 9 10 11 7 4 4 5 7 6 7 6 7 8 7 8 7 7 8 9 15 14 16 17 19 20 21 21 20 20 20 19 19 19 19 19 19 20 22 23 21 22 21 21 20 18 19 19
9 9 9 9 7 8 8 8 7 7 6 7 7 8 7 7 7 7 7 7 6 5 5 4 2 3 3 4 3 4 4 5 5 4 5 5 5 8 7 6 12 12 4 3 5 3 6 6 6 7 7 7 7 7 7 7 8 12 15 12 17 18 19 21 21 21 21 20 20 20 20 20 19 19 19 21 22 24 24 23 21 20 20 20 19
8 8 7 7 7 6 6 7 6 5 5 5 5 5 6 6 6 7 7 6 6 5 5 4 3 3 1 2 2 3 4 4 4 5 5 5 5 5 8 6 7 12 8 4 1 5 3 4 5 6 5 6 8 7 7 8 8 13 16 11 11 16 19 20 21 21 21 21 21 20 19 19 20 19 18 20 22 23 25 25 21 22 22 21 20
5 5 6 7 7 8 8 8 8 7 7 7 7 6 6 5 5 5 5 5 7 6 6 5 6 6 4 3 4 3 3 3 3 4 4 4 5 5 5 10 9 7 10 7 7 7 9 5 5 5 7 7 7 7 8 7 8 12 13 8 8 13 17 20 22 22 22 22 21 20 19 18 18 20 20 20 22 22 26 25 24 24 23 23 22
3 3 4 4 4 5 6 7 7 8 8 8 8 7 7 6 6 6 7 4 6 6 6 6 6 6 5 4 3 5 4 3 3 4 4 4 5 4 5 5 6 13 9 11 8 7 4 6 3 5 6 6 6 6 7 6 7 11 11 6 6 8 13 19 21 22 22 22 21 20 20 19 19 19 19 19 19 19 22 23 24 23 20 18 16
3 2 3 3 3 4 4 4 5 5 7 7 7 8 8 7 7 8 7 6 6 6 6 6 6 6 6 5 5 5 5 4 3 4 4 4 4 5 4 5 5 7 8 9 14 10 3 3 3 4 3 5 6 4 4 4 6 7 5 5 6 8 10 16 20 21 22 22 22 21 20 20 20 19 19 19 19 19 19 19 19 17 16 15 15
5 5 5 6 5 5 5 5 5 5 5 5 5 6 6 6 7 6 6 6 7 6 5 4 6 5 5 5 5 5 5 5 5 5 4 5 5 4 5 5 5 6 5 8 15 5 11 3 3 4 2 3 3 5 3 5 8 8 6 6 6 8 13 17 17 19 21 23 23 22 22 21 21 20 19 19 19 18 17 18 18 18 16 17 19
7 8 8 8 8 8 8 9 8 8 7 7 6 6 5 6 5 6 6 6 6 7 6 6 6 5 6 6 5 5 5 5 6 6 5 4 5 5 5 5 5 6 7 7 11 5 1 9 4 2 2 5 7 7 6 6 8 8 6 6 7 10 14 11 15 17 20 22 22 22 23 23 22 21 21 20 20 19 19 18 20 19 18 20 22
5 5 5 6 7 8 7 8 8 8 9 8 8 8 8 7 7 7 6 6 6 6 7 6 6 6 7 7 7 6 6 5 6 5 6 5 5 5 6 6 6 6 6 7 10 15 5 10 11 9 8 9 7 9 8 6 7 10 7 7 8 10 9 8 10 17 19 20 21 22 23 23 23 22 21 22 22 22 21 19 19 19 18 19 21
4 6 6 6 6 6 6 7 7 7 7 8 6 6 6 7 7 6 7 7 8 8 7 9 6 6 7 8 9 7 6 7 6 6 6 6 6 6 6 6 7 6 6 7 10 13 8 5 9 8 6 5 8 4 9 7 7 7 7 6 6 6 7 7 8 12 16 18 20 21 22 23 23 23 21 21 21 21 20 23 25 21 19 21 21
5 6 6 6 5 6 6 7 7 7 7 6 7 6 7 8 7 6 7 8 8 9 8 9 8 7 8 9 10 8 7 8 8 6 6 6 6 7 7 6 7 7 6 7 9 10 14 4 7 8 7 5 10 3 7 9 8 6 8 7 4 6 7 7 7 8 12 16 19 20 22 23 24 24 24 21 21 22 23 23 23 23 23 25 22
6 5 6 6 6 6 6 6 7 7 7 7 7 7 8 8 9 8 7 7 8 9 10 10 10 8 9 10 10 9 7 9 9 7 6 6 6 7 9 7 8 8 7 7 8 12 13 11 5 8 6 6 7 8 5 7 7 7 8 8 8 5 5 6 8 7 10 16 18 20 21 22 23 24 25 24 22 21 22 23 22 21 22 22 23
6 5 5 5 4 5 5 6 6 6 7 7 7 6 7 8 8 9 9 9 8 8 9 10 10 9 9 11 10 9 8 10 10 9 7 7 7 7 8 8 7 9 8 7 8 10 11 13 8 6 7 7 9 6 5 6 8 8 8 8 4 7 7 6 7 7 8 15 18 19 20 21 22 23 24 24 23 22 22 23 23 21 20 20 20
5 5 5 4 5 5 6 6 7 6 7 7 7 7 7 7 7 8 9 8 9 10 10 10 9 10 10 10 11 10 9 11 10 8 8 9 9 8 9 9 8 8 7 7 9 9 11 13 12 7 6 7 7 9 6 8 8 8 6 7 7 8 8 7 6 7 10 16 18 19 19 21 22 23 24 25 25 24 23 22 22 21 20 20 20
6 5 6 6 6 6 6 6 6 6 6 7 7 7 8 7 7 8 9 9 9 10 11 11 10 9 9 11 11 10 10 11 12 11 9 10 10 10 10 10 9 8 9 9 8 9 10 12 11 12 7 8 7 6 7 6 8 9 8 7 6 6 8 8 7 6 5 6 6 8 12 16 19 23 24 24 25 26 24 23 22 22 22 20 20
6 6 6 6 6 5 6 5 6 7 7 6 7 7 7 7 9 10 10 10 10 9 9 10 10 10 10 10 10 11 11 11 12 12 11 11 10 11 10 10 9 9 10 10 9 9 10 12 12 10 10 7 7 10 6 6 8 8 8 9 9 7 6 7 9 6 6 7 10 14 12 11 12 11 16 23 25 26 26 24 23 23 22 21 21
5 6 7 7 6 5 6 6 6 6 6 7 6 6 7 8 9 10 10 10 11 10 10 10 10 10 10 10 10 10 11 11 12 12 11 11 11 12 10 9 9 10 10 10 9 9 10 11 11 12 9 9 7 6 4 3 6 8 6 7 11 11 6 6 8 8 4 6 7 6 9 11 13 15 19 21 24 26 24 22 23 23 23 21 22
5 5 6 7 6 7 6 7 7 6 6 6 6 7 9 10 9 10 10 10 10 12 11 11 10 11 11 10 10 10 13 19 24 21 20 18 14 13 12 10 10 10 10 9 9 9 10 10 12 10 11 10 9 8 7 6 8 11 6 4 8 10 8 8 8 7 7 7 6 6 7 7 8 9 9 10 12 17 19 23 19 23 22 21 22
4 5 6 5 5 7 7 7 6 6 6 5 9 17 15 11 12 10 10 10 10 10 10 12 11 10 10 11 12 21 24 23 23 24 24 24 24 19 15 13 12 12 11 11 10 9 9 11 11 11 12 12 11 8 9 7 7 6 8 6 9 11 8 8 11 6 7 7 7 9 9 7 8 9 8 10 10 10 10 12 13 14 17 22 23
6 6 6 6 6 6 7 7 8 6 5 6 16 17 18 19 14 12 12 13 12 12 12 13 13 13 11 11 11 13 15 16 14 19 21 23 23 24 26 25 21 16 14 14 12 10 10 11 11 12 12 14 14 10 9 8 7 7 9 8 9 9 9 7 11 6 4 8 7 7 10 6 7 10 9 10 9 8 9 11 11 18 20 22 23
4 3 5 5 6 6 6 7 7 7 7 11 17 18 19 19 17 13 12 11 11 11 12 12 12 13 14 13 12 11 11 14 15 15 18 22 23 24 25 25 24 26 24 18 15 13 12 12 12 12 11 13 13 11 9 8 8 6 7 8 9 9 10 9 8 11 4 7 5 7 11 4 7 9 10 10 9 8 10 12 18 20 22 23 21
4 4 6 7 6 6 7 8 8 7 7 13 17 19 19 20 20 17 11 11 11 11 11 12 13 13 13 13 12 11 10 18 14 12 13 14 19 23 23 24 24 24 24 25 25 19 14 15 15 16 14 13 15 14 11 9 7 10 6 8 7 8 9 10 11 11 5 6 6 7 11 5 8 8 11 10 8 8 10 15 21 21 23 23 23
4 5 4 6 5 7 7 8 8 8 8 13 19 20 20 21 20 18 11 10 10 11 11 11 11 12 12 12 12 12 12 12 12 13 13 14 14 13 13 13 13 17 21 24 25 26 22 15 14 15 15 11 13 13 13 11 12 12 10 11 7 9 9 12 11 13 8 6 8 7 11 8 6 7 11 10 6 8 9 12 20 22 24 25 25
6 6 6 6 6 6 7 7 9 9 7 17 19 20 20 21 21 18 9 10 9 10 11 11 12 12 13 12 13 14 13 13 12 15 15 14 14 12 12 11 11 11 12 12 12 11 12 12 14 15 17 15 16 17 18 15 14 14 13 13 12 12 12 12 12 11 10 6 7 6 13 11 4 7 10 9 5 9 9 12 21 23 24 24 25
3 4 4 4 7 8 7 8 9 10 9 17 20 20 21 20 22 11 9 10 10 10 10 11 12 11 12 12 13 13 13 14 18 24 21 17 14 14 15 14 14 13 13 14 20 21 17 15 14 14 14 15 20 18 17 16 14 14 14 14 13 13 12 12 14 10 13 6 10 10 10 12 4 8 9 6 5 8 7 7 15 23 23 24 24
5 5 5 5 6 7 8 7 9 10 9 14 20 20 21 22 17 7 9 9 10 11 11 12 11 11 11 12 13 14 15 15 20 26 25 24 15 15 14 13 10 9 9 10 18 23 23 24 27 29 30 30 30 31 32 34 25 19 14 13 14 11 13 14 14 12 14 8 7 10 10 13 8 8 8 4 6 7 8 8 9 16 23 23 24
7 5 6 7 6 6 8 9 8 10 10 14 20 21 21 21 18 10 6 7 9 11 11 11 11 11 12 22 21 17 15 15 23 26 26 20 13 12 11 13 14 13 12 11 11 13 21 25 26 27 27 27 27 28 29 28 28 22 15 17 14 11 14 12 15 13 11 10 7 10 8 13 9 4 4 4 4 4 6 7 7 9 17 20 24
6 6 6 7 7 6 6 8 12 13 11 12 18 19 21 20 16 9 7 7 8 10 10 11 11 12 12 15 23 22 20 21 27 24 25 20 13 12 12 13 14 14 12 11 11 12 11 11 12 13 15 19 18 16 16 27 28 23 16 15 13 13 14 13 14 12 13 12 8 11 12 8 10 4 7 2 7 5 6 7 7 7 7 8 10
Wind_Direction
171 179 172 166 161 314 188 181 196 159 141 134 137 148 145 149 163 163 159 160 155 161 132 83 78 72 49 323 320 310 304 305 297 297 298 301 306 295 301 294 285 283 278 283 287 280 244 236 241 258 275 239 253 239 257 270 275 268 288 289 286 290 315 321 339 330 335 323 323 325 332 327 320 312 302 295 342 343 356 10 26 28 29 26 30
168 167 172 181 162 146 282 259 197 178 174 185 174 153 172 160 162 167 173 179 191 210 143 223 4 47 64 320 308 297 302 298 299 293 298 305 289 294 300 298 293 279 276 276 273 281 268 231 240 243 243 249 253 249 236 254 267 273 250 293 293 295 303 316 318 327 343 319 308 300 321 331 318 315 304 313 332 322 304 323 317 14 23 23 27
169 179 184 175 162 166 200 158 299 329 319 170 150 186 176 179 183 184 189 185 209 88 132 246 328 347 16 336 279 314 296 292 295 294 295 297 302 303 305 305 302 295 287 276 269 270 279 254 244 242 243 247 247 241 228 236 267 268 261 202 295 290 293 297 296 324 349 322 306 296 313 320 320 320 309 311 314 316 311 307 315 320 356 17 15
283 184 170 166 176 182 180 190 225 202 192 203 178 71 94 88 115 137 139 141 141 106 86 202 277 279 355 315 308 313 305 309 301 304 303 300 305 310 313 308 310 306 301 290 275 273 273 269 257 257 246 251 262 263 246 239 247 268 246 187 234 256 304 305 332 69 331 310 296 293 300 308 314 308 306 303 307 307 304 303 298 298 286 13 2
159 154 299 249 190 180 190 203 214 197 188 157 129 138 135 137 113 107 107 108 124 217 94 58 294 307 358 320 352 311 310 321 305 313 310 306 306 309 313 314 310 313 309 311 304 295 287 279 270 260 258 256 256 258 251 247 234 249 262 258 268 267 237 252 137 145 273 287 293 285 272 290 304 305 298 292 291 305 302 299 298 293 291 301 343
146 183 180 198 272 272 256 224 210 203 175 170 175 159 148 148 148 135 145 159 206 228 244 272 274 301 310 291 336 296 330 325 313 306 307 298 299 307 303 313 313 307 309 312 315 315 302 295 301 290 285 284 274 262 254 252 243 241 256 249 253 250 236 243 238 253 254 263 279 287 288 270 286 293 292 291 285 280 292 294 286 292 286 283 283
190 184 182 176 186 204 209 226 204 112 134 138 140 136 155 178 157 171 157 187 204 228 212 241 260 278 277 317 297 309 310 283 309 303 298 289 306 297 308 307 303 305 307 309 311 312 318 319 303 291 283 285 296 276 256 258 264 258 252 259 254 238 225 255 271 251 245 244 268 277 285 294 281 280 284 284 282 280 286 290 288 281 349 322 287
358 343 282 206 197 206 223 220 171 153 133 132 142 176 176 167 182 170 179 226 200 248 203 245 262 272 289 297 278 291 295 294 285 272 258 281 284 300 303 296 292 293 299 300 301 304 307 310 304 294 308 318 308 312 281 263 263 265 252 257 272 283 257 242 253 276 286 236 252 264 273 278 275 271 271 273 277 279 278 283 285 280 312 300 299
18 33 22 4 352 337 353 10 30 147 157 144 173 172 170 180 185 210 205 208 194 234 246 227 249 256 287 291 309 319 296 282 272 267 285 269 269 285 296 288 288 297 294 294 293 296 303 302 304 310 321 315 309 298 293 280 272 267 259 254 253 250 248 243 244 245 279 266 253 251 262 272 269 260 262 267 268 273 277 278 279 283 282 282 284
35 35 39 28 24 20 21 24 19 2 350 344 201 156 176 181 206 210 215 196 208 216 236 229 226 271 296 291 300 295 263 261 249 258 260 276 272 265 256 273 297 287 284 280 286 301 300 298 301 307 313 308 296 289 284 282 289 294 277 258 255 252 248 252 257 207 230 247 263 265 256 260 263 270 260 260 260 264 271 272 275 276 289 299 296
38 37 46 43 43 43 44 32 36 29 26 18 12 4 360 350 330 360 23 352 328 249 277 277 277 282 273 265 259 253 255 258 279 277 267 257 266 263 267 264 261 269 271 278 289 293 292 293 302 303 299 296 295 291 291 288 294 290 289 282 263 252 252 250 249 243 233 236 234 248 258 257 261 267 265 259 254 257 259 266 273 281 288 278 276
34 32 39 41 45 39 40 29 37 58 58 41 23 26 15 12 10 1 352 340 9 15 34 64 353 278 265 268 254 263 262 245 255 254 257 248 242 249 260 260 249 259 258 265 275 270 279 290 297 292 293 295 299 300 296 298 313 300 290 287 280 264 253 250 251 254 246 234 236 243 247 251 256 258 259 264 257 248 252 260 272 274 273 276 272
31 32 35 40 47 41 38 36 37 44 47 44 40 45 48 86 73 65 31 10 345 20 358 7 356 305 300 296 300 252 251 242 244 252 247 248 234 238 244 247 251 252 251 245 251 260 268 278 279 287 292 299 297 297 297 295 297 289 282 281 280 276 264 254 251 252 243 241 246 251 250 252 253 256 256 257 262 260 255 257 260 261 263 264 263
28 34 38 36 39 37 33 30 26 30 45 53 53 60 51 49 41 35 41 66 342 9 352 346 358 341 333 329 330 312 291 258 258 257 257 257 243 245 252 240 255 250 266 266 269 265 260 260 273 282 283 288 287 293 296 294 292 287 281 275 274 268 261 263 258 253 252 247 247 252 253 253 254 255 255 255 253 253 254 254 256 259 258 258 256
29 29 36 30 34 41 40 38 39 32 38 37 37 40 41 51 47 45 4 23 211 360 56 70 287 336 260 322 326 353 333 342 317 290 268 250 232 246 259 276 263 275 274 272 269 269 271 265 268 265 268 270 275 282 283 284 282 282 280 279 280 278 275 260 256 258 256 252 246 246 252 249 250 254 254 253 252 251 252 253 253 254 255 255 255
28 30 36 34 29 31 29 33 34 31 38 38 31 27 19 29 40 63 95 345 15 20 68 98 112 20 334 22 282 29 318 341 331 295 314 282 262 255 258 253 260 280 312 272 272 276 266 261 258 257 261 262 264 267 269 272 281 283 281 282 280 274 267 268 267 255 258 256 248 244 248 249 249 249 253 252 252 251 252 255 251 250 250 252 252
33 33 33 33 33 33 35 34 36 30 37 45 42 36 33 30 24 26 32 25 353 25 4 117 182 131 127 341 335 345 243 292 332 295 345 2 306 276 274 274 284 284 258 261 256 252 251 255 249 249 248 245 248 250 256 263 268 268 277 277 275 273 272 268 264 261 258 259 260 262 264 233 236 254 254 251 250 252 253 254 251 247 247 248 247
35 33 33 31 32 29 32 33 32 29 30 38 35 30 28 28 17 21 17 17 360 1 345 360 203 203 183 195 181 254 310 316 349 303 335 234 292 319 274 263 256 259 251 256 259 258 241 251 248 253 250 250 249 252 248 251 248 252 253 263 265 263 263 263 263 261 259 257 259 260 262 264 232 235 238 247 249 250 250 251 252 249 246 244 247
36 35 34 33 34 31 30 32 32 29 25 34 32 26 21 24 13 28 24 13 21 20 2 336 339 244 211 220 198 205 185 291 282 316 310 314 68 328 307 280 255 247 257 251 258 264 259 244 255 251 254 246 248 247 250 249 244 239 244 248 254 257 258 257 256 260 260 258 258 258 260 264 234 234 238 230 245 249 249 251 251 250 245 244 243
37 36 35 36 37 36 33 34 35 28 29 32 28 14 20 23 27 26 30 29 23 28 348 349 18 328 13 320 247 238 222 237 240 246 273 299 298 280 257 281 290 269 257 265 259 253 263 254 250 253 250 248 241 241 245 247 248 247 248 245 246 249 251 253 253 251 255 259 258 259 259 257 257 241 227 229 234 245 246 249 250 249 248 246 242
36 34 33 34 36 36 35 38 38 31 30 30 25 23 25 22 19 22 24 28 28 9 18 2 360 344 340 334 346 298 263 222 231 200 251 290 292 302 302 309 292 256 261 248 266 260 250 255 249 250 251 251 240 240 242 246 249 246 249 245 244 246 248 250 249 247 247 250 254 257 258 259 260 266 257 233 228 233 237 242 249 249 246 246 249
32 32 31 27 29 29 32 33 32 29 32 30 27 27 23 26 25 26 25 31 21 23 21 358 358 342 345 322 335 328 327 326 158 254 263 218 271 298 300 304 301 279 230 268 263 254 252 251 259 253 252 250 246 237 237 240 242 245 245 244 243 246 250 252 252 252 249 245 246 251 256 257 259 261 264 256 240 235 231 235 242 247 247 246 247
36 36 36 29 29 29 30 27 27 26 25 23 22 19 16 21 21 31 35 34 21 18 18 19 8 360 356 358 342 330 307 292 293 294 282 293 297 294 304 295 290 301 258 248 258 268 265 251 252 252 250 252 253 242 237 239 243 241 243 243 243 243 244 246 248 249 249 249 249 250 251 254 258 260 263 265 262 239 232 226 232 242 247 247 246
37 35 31 25 28 28 29 30 29 24 25 20 19 15 8 12 17 22 23 24 25 28 27 18 9 3 2 355 343 330 316 297 294 292 291 284 280 288 293 306 291 261 284 272 243 252 248 249 238 246 247 250 252 243 244 241 243 243 246 244 240 242 244 244 244 244 246 247 247 248 249 250 253 255 256 260 263 264 241 228 227 234 239 242 244
27 29 20 19 22 22 22 23 22 23 21 21 16 15 10 13 14 13 14 17 10 8 17 10 1 16 333 332 329 329 310 311 311 298 296 290 287 290 282 282 290 299 275 254 285 258 232 233 237 236 243 249 254 254 243 246 245 246 244 248 241 242 243 247 248 248 247 245 246 246 247 246 249 251 253 253 256 260 258 235 234 235 233 234 239
26 26 9 13 22 20 20 22 22 18 20 20 18 14 10 10 9 12 7 2 359 0 357 351 348 344 314 324 331 308 300 307 307 312 296 307 296 285 301 292 283 291 298 289 237 305 280 254 240 244 249 249 254 252 251 245 251 253 248 246 247 242 241 242 244 245 245 246 245 245 245 246 247 249 251 252 250 252 257 244 234 234 237 238 238
32 11 10 18 15 15 14 15 12 12 12 14 12 10 9 4 10 4 0 357 356 352 348 352 347 343 343 342 318 301 274 288 303 294 295 285 277 287 301 307 301 280 294 286 281 224 266 262 228 233 231 245 247 249 248 245 255 263 261 249 253 248 243 244 244 245 245 244 243 244 245 245 245 248 250 251 247 244 244 242 240 240 240 240 240
19 24 9 24 17 14 11 11 5 7 8 8 7 8 3 4 1 3 1 354 354 348 342 343 339 335 329 321 321 309 310 292 273 270 273 271 277 282 284 274 286 303 309 301 291 284 204 252 298 240 239 241 254 251 261 266 264 265 271 267 258 260 251 249 249 249 249 247 245 244 243 245 245 245 248 250 245 240 243 242 239 242 243 240 238
22 27 17 16 20 19 15 9 8 5 6 4 4 3 0 360 359 355 356 351 349 342 336 337 329 327 327 325 312 301 302 304 290 269 266 266 259 257 248 251 264 275 303 300 295 307 302 192 284 294 234 245 257 283 303 280 272 273 269 262 257 261 258 253 252 253 253 253 251 247 243 243 243 243 245 246 245 237 235 238 239 238 241 240 237
16 9 10 9 12 11 13 8 6 8 8 0 3 360 359 358 351 349 342 343 341 337 337 330 325 320 310 312 314 309 304 306 294 290 278 269 266 253 247 245 225 244 259 283 288 290 295 269 222 269 322 309 285 289 267 270 266 268 254 242 243 247 256 258 258 258 257 256 254 252 248 243 240 238 239 241 243 237 230 229 229 229 229 232 235
11 7 6 4 4 2 4 1 1 4 4 2 360 357 358 351 345 341 335 343 338 330 327 332 322 323 317 313 307 299 302 302 299 298 287 271 264 258 257 242 239 229 243 251 278 279 125 299 288 248 262 295 292 282 281 272 268 266 259 246 244 244 250 257 256 255 255 256 256 255 254 250 244 237 234 237 239 238 231 227 228 228 227 229 231
10 2 6 3 359 359 357 357 356 357 357 357 356 353 350 350 340 338 331 332 328 322 317 320 318 319 316 313 309 307 306 300 295 290 290 284 269 263 254 249 248 238 236 248 252 272 268 279 285 286 283 281 279 289 278 268 266 262 258 248 249 251 253 253 249 250 252 253 253 254 253 252 249 243 233 232 235 235 233 228 226 228 228 227 229
3 360 3 359 358 356 353 354 354 349 349 346 348 346 344 337 336 328 326 330 325 319 316 313 314 314 312 307 307 305 305 300 291 288 288 286 287 272 258 252 254 245 235 245 258 274 270 222 273 282 281 287 287 232 278 277 279 275 264 255 254 252 253 251 251 248 248 250 251 252 253 253 251 247 241 232 229 231 231 232 232 230 231 231 231
8 360 359 353 354 353 356 350 349 346 342 342 339 344 338 333 329 329 327 325 320 315 316 311 315 316 309 307 302 304 307 297 296 291 280 283 283 286 278 261 256 258 232 247 261 266 283 253 271 276 284 260 280 230 256 279 279 272 273 274 249 240 248 252 254 253 244 247 247 248 249 250 251 250 247 240 230 225 228 231 234 234 233 236 234
358 358 350 350 349 350 351 347 344 341 340 337 341 339 334 331 325 323 320 315 310 310 311 307 309 310 306 302 300 305 305 299 296 293 292 284 278 273 278 271 269 266 257 241 263 276 278 279 244 276 270 276 264 280 257 267 268 272 280 277 271 265 245 247 249 254 250 248 248 248 248 249 249 250 249 246 240 232 227 227 228 232 236 237 238
350 342 342 342 348 346 344 340 339 336 334 333 334 332 325 323 318 314 316 314 309 304 300 302 305 305 300 300 298 302 301 296 295 297 295 288 286 282 277 276 265 271 267 259 253 265 279 286 269 240 274 277 280 264 264 261 273 271 263 274 266 265 262 249 243 253 251 254 253 251 250 249 248 248 249 249 247 241 233 229 228 228 231 235 236
348 343 345 353 349 350 351 341 336 337 333 332 329 325 320 314 309 307 307 305 304 302 299 299 299 300 299 294 297 302 301 295 293 292 293 290 287 284 282 281 277 272 272 264 266 263 274 276 283 265 252 261 256 278 274 280 276 267 263 259 261 263 264 251 251 240 244 248 250 249 248 248 247 246 246 247 247 246 240 234 230 228 226 230 231
349 354 353 353 351 348 345 337 334 335 337 332 326 320 316 316 313 310 306 302 300 300 299 297 296 295 295 296 298 300 297 294 295 296 292 287 286 281 280 280 279 278 277 274 266 269 268 272 276 286 262 265 272 252 263 253 274 280 276 265 261 249 253 266 251 248 237 239 249 251 251 251 249 248 245 244 245 245 243 238 231 226 223 223 228
349 351 350 348 346 343 332 340 340 338 333 330 325 317 319 319 312 305 304 301 298 297 295 295 297 296 294 293 293 294 293 292 292 293 295 288 284 280 276 279 276 276 277 276 276 274 273 279 280 271 278 262 249 272 253 238 253 260 276 291 279 254 241 244 265 243 229 241 241 243 244 240 240 243 247 247 246 243 243 241 237 232 225 219 219
354 347 348 344 338 338 337 343 337 335 329 326 320 321 314 309 307 303 303 302 300 296 294 293 291 289 290 289 286 286 286 284 284 285 283 285 285 281 277 273 274 274 273 275 274 273 276 277 276 286 276 280 271 253 275 266 277 269 229 248 271 280 258 238 237 253 230 226 251 251 247 251 251 250 250 249 247 245 244 243 241 235 229 221 218
348 342 346 339 336 341 342 338 339 335 329 324 329 319 315 311 307 303 302 300 300 299 297 297 297 298 296 293 289 285 287 289 289 289 287 286 286 288 287 286 284 277 275 272 272 272 272 273 279 277 281 277 267 271 263 238 232 255 260 196 256 264 275 273 263 227 227 234 241 242 245 225 238 238 235 241 242 243 245 243 242 238 233 226 219
341 345 340 339 348 340 337 333 336 330 323 322 311 312 314 312 311 308 304 300 297 297 297 298 293 289 286 289 292 295 295 293 291 289 288 286 284 282 285 287 287 284 279 277 273 268 269 274 272 280 280 276 275 264 262 251 244 255 265 250 259 272 272 271 276 238 200 209 237 247 245 221 218 242 232 241 242 236 239 239 236 234 231 229 223
346 347 338 342 346 335 333 329 325 323 314 307 309 312 313 313 312 308 306 305 305 305 305 307 308 310 310 306 304 306 307 306 304 301 298 295 292 290 287 284 281 279 283 283 280 278 274 267 272 274 273 278 275 271 265 269 251 237 251 248 252 268 269 272 280 288 174 193 219 247 259 214 192 234 236 235 239 229 234 238 237 236 231 228 226
342 334 334 339 332 332 325 321 314 312 306 303 309 309 311 310 310 307 306 304 305 305 306 307 307 309 308 309 310 310 308 304 301 299 296 294 292 289 286 283 281 280 277 277 283 284 281 282 279 271 272 269 280 277 275 271 273 261 245 249 248 249 262 260 256 266 233 182 192 237 257 209 185 227 246 238 230 221 230 233 235 235 235 232 227
327 338 336 333 329 327 320 315 312 305 295 304 308 310 312 312 311 310 304 305 305 307 308 308 306 305 304 303 303 299 298 301 301 299 298 296 295 294 293 292 288 285 283 280 276 276 282 280 280 278 271 279 278 277 278 277 277 274 263 256 251 250 251 255 255 266 252 179 199 243 260 232 177 215 241 239 221 215 225 232 233 234 234 234 232
335 329 329 325 320 317 316 313 308 306 298 304 311 314 314 312 312 312 310 313 310 306 304 302 300 299 300 302 303 303 301 300 297 297 293 285 281 276 275 274 275 279 281 282 284 285 285 287 286 281 283 286 284 291 291 297 292 284 280 272 264 261 257 254 258 259 255 172 198 237 265 247 192 210 241 246 203 214 222 220 225 230 231 230 232
329 326 325 321 315 312 310 308 305 303 298 309 314 315 313 313 313 317 319 313 304 300 299 298 299 299 300 300 299 299 300 300 299 298 299 301 301 299 295 290 284 280 277 272 264 257 257 258 264 269 276 275 276 277 279 276 271 274 274 275 274 268 266 268 265 260 263 199 208 202 256 268 189 206 240 242 190 214 222 217 221 224 228 229 229
298 302 300 300 306 308 306 304 303 301 302 312 314 313 312 314 316 319 313 305 304 301 300 299 299 298 298 298 300 298 296 295 294 295 294 294 292 287 283 278 276 274 272 274 281 282 278 273 268 269 270 273 275 274 274 272 266 261 261 262 262 262 264 263 261 259 256 209 198 202 247 260 187 210 244 233 191 227 221 211 224 225 226 227 228
310 308 302 303 302 302 302 301 301 300 300 311 312 312 314 314 316 298 309 309 301 301 298 300 299 298 296 294 293 294 293 291 291 294 294 294 288 283 281 284 289 293 293 288 285 285 283 280 278 276 276 276 276 276 277 277 278 281 282 272 256 249 250 255 258 255 252 235 216 198 227 255 232 209 244 233 196 223 221 212 219 221 224 225 226
309 303 305 301 294 293 295 296 296 297 298 306 310 312 313 312 313 311 295 291 294 298 298 296 297 291 283 283 284 281 280 284 289 291 293 295 289 288 289 288 286 281 278 280 282 284 287 288 286 285 284 284 284 284 284 284 283 282 278 275 280 272 255 244 254 251 260 245 223 186 218 236 249 194 199 262 248 244 229 221 212 214 220 224 224
292 300 300 298 295 290 283 286 294 296 293 299 304 308 309 310 312 304 297 291 294 299 298 292 281 274 262 267 275 282 287 289 292 295 295 294 287 279 276 273 274 271 271 266 268 271 268 266 266 268 270 272 274 273 275 280 281 281 275 273 273 271 276 266 255 256 258 248 222 186 223 232 232 217 187 235 253 242 215 204 210 204 208 212 222